Погода в Махнёве

Россия / Свердловская область     58°26′54″N   61°42′34″E
темп.,
°C
ветер,
м/с
пор.,
м/с
влажн.,
%
обл.,
%
осадки,
мм/ч
давл.,
гПа
погр.,
м
6 марта, сб
сб623:00−10зюз4109165 0.3 997328
02:00−12з412880 0.0 999420
05:00−13з514820 0.0 1001487
08:00−14з5148266 0.0 1002563
11:00−10з6117840 0.0 1003906
14:00−9з697636 0.0 10031263
17:00−10з598068 0.1 10041228
20:00−13з41188100 0.0 1006485
7 марта, вс
вс723:00−16з399250 0.0 1008221
02:00−19зюз23940 0.0 100951
05:00−20зюз23950 0.0 101049
08:00−21юз23960 0.0 101063
11:00−14юз24880 0.0 1010323
14:00−10юз237853 0.0 1009747
17:00−10юз128476 0.1 1008574
20:00−16з1194100 0.0 100820
8 марта, пн
пн823:00−18зсз119692 0.0 100820
02:00−19зсз229919 0.0 100720
05:00−21зсз229945 0.0 100820
08:00−22з229623 0.0 100720
11:00−15зюз128525 0.0 1007304
14:00−11ю237991 0.0 1006603
17:00−11юв358895 0.0 1005583
20:00−12юв3796100 0.4 1005319
9 марта, вт
вт923:00−13ююв2796100 0.6 1005218
02:00−15ююв239795 0.1 100553
05:00−16юв239764 0.1 100425
08:00−14вюв3796100 0.0 1000200
11:00−8юв51093100 0.4 996620
14:00−3ююз5972100 1.9 9941445
17:00−6зюз5980100 2.3 995929
20:00−12зсз51190100 0.3 998525
10 марта, ср
ср1023:00−16зсз499596 0.3 1003318
02:00−21зсз379653 0.0 1006167
05:00−24зсз239727 0.0 100940
08:00−25сз22970 0.0 100934
11:00−18ссз128611 0.0 1010306
14:00−13зсз128185 0.0 1009582
17:00−14ссв1290100 0.3 1007337
20:00−18ссв2298100 0.1 100741